Location: Carri�res
(48.9069°N, 2.1792°E)
Time: 04:49:59
(UTC+00:00)

CSL-04 DEB - Pass Details

Date: 17 January 2021
Orbit: 544 x 628 km, 98.8° (Epoch: 26 February)

Event Time Altitude Azimuth Distance (km) Brightness Sun altitude
Exits shadow 17:48:25 - 15° (NNE) 2,715 7.6 -13.3°
Reaches altitude 10° 17:50:12 10° 16° (NNE) 1,972 6.8 -13.6°
Maximum altitude 17:54:30 85° 105° (ESE) 606 4.4 -14.2°
Drops below altitude 10° 17:58:39 10° 195° (SSW) 1,905 7.4 -14.9°
Sets 18:00:45 0° 195° (SSW) 2,786 8.3 -15.2°
